Lexington Weather

Lexington, Massachusetts, USA

34°F
4/16/2021 10:33am 
  • Lexington Conditions: Snow, Fog, Overcast
  • Temperature: 34.0°F / 1.1°C 
  • Dew Point: 32.7°F 
  • Relative Humidity: 95
  • Wind: Calm, 10-min avg: Calm, gust: None
  • Barometer: 29.48 in Steady
  • Visibility: ½ mile
  • Snow Today: 1.3 in
  •   

Regional Weather Roundup
for Boston / Norton, MA

        
000
ASUS41 KBOX 110204
RWRBOX

REGIONAL WEATHER ROUNDUP
NATIONAL WEATHER SERVICE BOSTON/NORTON MA
1000 PM EDT SAT APR 10 2021

NOTE:  "FAIR" INDICATES FEW OR NO CLOUDS BELOW 12,000 FEET WITH NO 
SIGNIFICANT WEATHER AND/OR OBSTRUCTIONS TO VISIBILITY.

MAZALL-110300-
EASTERN MASSACHUSETTS
  
CITY           SKY/WX    TMP DP  RH WIND       PRES   REMARKS
BOSTON         PTCLDY    65  51  60 SW10      29.75F                  
BEVERLY        NOT AVBL                                               
LAWRENCE       CLEAR     65  53  65 S7        29.74F                  
BEDFORD        CLEAR     63  52  67 SW8       29.74F                  
BLUE HILL        N/A     58  51  78 S10       29.75F                  
NORWOOD        CLEAR     61  51  70 S7        29.76F                  
MARSHFIELD     PTCLDY    59  52  77 SW8G15    29.76F                  
PLYMOUTH       CLEAR     54  49  83 S8        29.78F                  
TAUNTON        CLEAR     56  49  77 VRB7      29.78F                  
NEW BEDFORD    CLEAR     53  48  83 SW12      29.79F                  
$$

MAZALL-110300-
CAPE COD AND THE ISLANDS
  
CITY           SKY/WX    TMP DP  RH WIND       PRES   REMARKS
FALMOUTH       CLEAR     50  48  93 SW9       29.81F                  
HYANNIS        CLEAR     51  49  92 S3        29.79F                  
CHATHAM        FOG       48  46  93 SW8       29.81F VSB 1/2          
PROVINCETOWN   CLEAR     48  46  93 S14         N/A                   
NANTUCKET      FOG       46  46 100 SW8       29.83F VSB 1/4          
MARTHAS VNYRD  FOG       48  48 100 SW12      29.81F VSB 1/2          
$$
 
MAZALL-110300-
CENTRAL AND WESTERN MASSACHUSETTS
  
CITY           SKY/WX    TMP DP  RH WIND       PRES   REMARKS
WORCESTER      MOCLDY    59  50  72 SW13      29.77F                  
FITCHBURG      PTCLDY    64  53  67 CALM      29.75F                  
ORANGE         MOCLDY    59  52  77 S7        29.76F                  
SPRINGFIELD    CLOUDY    61  52  73 S6        29.75F                  
WESTFIELD      MOCLDY    62  53  72 S7        29.76F                  
NORTH ADAMS    MOCLDY    60  46  59 CALM      29.76F                  
PITTSFIELD     MOCLDY    60  51  72 CALM      29.76F                  
$$
 
RIZALL-110300-
RHODE ISLAND
  
CITY           SKY/WX    TMP DP  RH WIND       PRES   REMARKS
PROVIDENCE     MOCLDY    55  50  83 S7        29.79F                  
NEWPORT        FOG       48  48 100 VRB5      29.80F VSB 1/4          
BLOCK ISLAND   LGT RAIN  47  47 100 S13       29.82F VSB 3/4          
SMITHFIELD     PTCLDY    57  53  86 SW7       29.78F                  
WESTERLY       MOCLDY    48  47  96 SW5       29.81F                  
$$
 
CTZALL-110300-
CONNECTICUT
  
CITY           SKY/WX    TMP DP  RH WIND       PRES   REMARKS
BRADLEY INTL   MOCLDY    61  51  70 S9        29.77F                  
HARTFORD       MOCLDY    60  51  72 S8        29.78F                  
BRIDGEPORT     MOCLDY    55  50  83 S12       29.81F                  
DANBURY        MOCLDY    60  52  74 CALM      29.81F                  
GROTON         MOCLDY    46  45  96 SW7       29.81F                  
NEW HAVEN      MOCLDY    53  50  89 S5        29.81F                  
CHESTER        FAIR      54  52  94 S5        29.81F                  
MERIDEN        MOCLDY    56  49  77 S6        29.80F                  
WILLIMANTIC    MOCLDY    59  51  75 S5        29.79F                  
OXFORD         MOCLDY    56  55  97 SW6       29.81F                  
$$

MEZ002-015-021-024-NHZ003-005-008-011-012-014-VTZ005-008-110300-
NORTHERN NEW ENGLAND
  
CITY           SKY/WX    TMP DP  RH WIND       PRES   REMARKS
PORTLAND ME    PTCLDY    47  45  93 E10       29.76F                  
BANGOR ME      CLOUDY    47  42  83 SE7       29.82F                  
CONCORD NH     PTCLDY    61  48  62 CALM      29.71F                  
MANCHESTER NH  CLEAR     67  51  56 S6        29.71F                  
NASHUA NH      PTCLDY    66  54  65 VRB5      29.73F                  
PORTSMOUTH NH  NOT AVBL                                               
JAFFREY NH     PTCLDY    62  52  69 SW5       29.76F                  
KEENE NH       MOCLDY    60  52  74 S3        29.74F                  
BURLINGTON VT  PTCLDY    62  49  62 NE3       29.72F                  
MT. WASHINGTON PTCLDY    41  39  93 NW24        N/A  WCI  31          
$$

NYZ052-076-110300-
EASTERN NEW YORK
  
CITY           SKY/WX    TMP DP  RH WIND       PRES   REMARKS
ALBANY         MOCLDY    63  53  70 SE10      29.74F                  
NEW YORK CITY  CLOUDY    56  52  86 S7        29.80F                  
$$
 
ANZALL-110300-
MARINE OBSERVATIONS
  
STATION/POSITION TIME  TEMP    WIND        PRES    VSBY  WAVE
                       AIR SEA DIR/SP/G                  HT/PER
                 (UTC) (F)     (DEG/KT/KT) (MB)    (MI)  (FT/S)
BOSTON BUOY      0140   52 46  210/  8/ 10 1007.7F
BUZZARDS BAY     0100          200/ 18/ 18 1011.3F
NANTUCKET SOUND  0150      47                N/A
MASS BAY-STELLWA 0104   51     210/ 12/ 14 1006.6F  1 7/8  4/11
ISLE OF SHOALS   0100   60     190/ 21/ 22 1006.6F
S OF BLOCK IS    0126      46                N/A           3/10
$$

......................KEY.........................
  SKY/WX - SKY CONDITION/PRESENT WEATHER
  TMP    - TEMPERATURE IN FAHRENHEIT
  DWPT   - DEWPOINT IN FAHRENHEIT
  RH     - RELATIVE HUMIDITY IN PERCENT
  WIND   - DIRECTION AND SPEED IN MPH
  PRES   - MEAN SEA LEVEL PRESSURE IN INCHES OF HG
  WCI    - WIND CHILL INDEX
  VSB    - VISIBILITY IN MILES
  HX     - HEAT INDEX
  TC     - TEMPERATURE IN CELSIUS
  VRB    - VARIABLE WIND DIRECTION
  N/A    - NOT AVAILABLE
  
      

Other recent Regional Weather Roundups

Fri Apr 16, 10:05am

Fri Apr 16, 9:04am

Fri Apr 16, 8:04am

Fri Apr 16, 7:04am

Fri Apr 16, 6:04am

Fri Apr 16, 5:04am

Fri Apr 16, 4:04am

Fri Apr 16, 3:04am

Fri Apr 16, 2:04am

Fri Apr 16, 1:04am

Fri Apr 16, 12:04am

Thu Apr 15, 11:05pm

Thu Apr 15, 10:04pm

Thu Apr 15, 9:04pm

Thu Apr 15, 8:04pm

Thu Apr 15, 7:05pm

Thu Apr 15, 6:04pm

Thu Apr 15, 5:05pm

Thu Apr 15, 4:04pm

Thu Apr 15, 3:05pm

Thu Apr 15, 2:04pm

Thu Apr 15, 1:05pm

Thu Apr 15, 12:04pm

Thu Apr 15, 11:04am

Thu Apr 15, 10:05am

Thu Apr 15, 9:04am

Thu Apr 15, 8:04am

Thu Apr 15, 7:04am

Thu Apr 15, 6:04am

Thu Apr 15, 5:04am

Thu Apr 15, 4:04am

Thu Apr 15, 3:04am

Thu Apr 15, 2:04am

Thu Apr 15, 1:04am

Thu Apr 15, 12:04am

Wed Apr 14, 11:04pm

Wed Apr 14, 10:04pm

Wed Apr 14, 9:04pm

Wed Apr 14, 8:04pm

Wed Apr 14, 7:04pm

Wed Apr 14, 6:04pm

Wed Apr 14, 5:05pm

Wed Apr 14, 4:04pm

Wed Apr 14, 3:05pm

Wed Apr 14, 2:04pm

Wed Apr 14, 1:05pm

Wed Apr 14, 12:04pm

Wed Apr 14, 11:04am

Wed Apr 14, 10:04am

Wed Apr 14, 9:04am

Wed Apr 14, 8:04am

Wed Apr 14, 7:04am

Wed Apr 14, 6:04am

Wed Apr 14, 5:04am

Wed Apr 14, 4:04am

Wed Apr 14, 3:04am

Wed Apr 14, 2:04am

Wed Apr 14, 1:04am

Wed Apr 14, 12:04am

Tue Apr 13, 11:04pm

Tue Apr 13, 10:05pm

Tue Apr 13, 9:05pm

Tue Apr 13, 8:05pm

Tue Apr 13, 7:04pm

Tue Apr 13, 6:04pm

Tue Apr 13, 5:05pm

Tue Apr 13, 4:04pm

Tue Apr 13, 3:04pm

Tue Apr 13, 2:05pm

Tue Apr 13, 1:04pm

Tue Apr 13, 12:05pm

Tue Apr 13, 11:05am

Tue Apr 13, 10:04am

Tue Apr 13, 9:04am

Tue Apr 13, 8:04am

Tue Apr 13, 7:04am

Tue Apr 13, 6:04am

Tue Apr 13, 5:04am

Tue Apr 13, 4:04am

Tue Apr 13, 3:04am

Tue Apr 13, 2:04am

Tue Apr 13, 1:04am

Tue Apr 13, 12:05am

Mon Apr 12, 11:04pm

Mon Apr 12, 10:04pm

Mon Apr 12, 9:04pm

Mon Apr 12, 8:04pm

Mon Apr 12, 7:05pm

Mon Apr 12, 6:04pm

Mon Apr 12, 5:04pm

Mon Apr 12, 4:04pm

Mon Apr 12, 3:05pm

Mon Apr 12, 2:04pm

Mon Apr 12, 1:05pm

Mon Apr 12, 12:04pm

Mon Apr 12, 11:04am

Mon Apr 12, 10:04am

Mon Apr 12, 9:04am

Mon Apr 12, 8:04am

Mon Apr 12, 7:04am

Mon Apr 12, 6:04am

Mon Apr 12, 5:04am

Mon Apr 12, 4:04am

Mon Apr 12, 3:04am

Mon Apr 12, 2:04am

Mon Apr 12, 1:05am

Mon Apr 12, 12:04am

Sun Apr 11, 11:04pm

Sun Apr 11, 10:04pm

Sun Apr 11, 9:04pm

Sun Apr 11, 8:04pm

Sun Apr 11, 7:04pm

Sun Apr 11, 6:05pm

Sun Apr 11, 5:05pm

Sun Apr 11, 4:04pm

Sun Apr 11, 3:05pm

Sun Apr 11, 2:05pm

Sun Apr 11, 1:05pm

Sun Apr 11, 12:04pm

Sun Apr 11, 11:05am

Sun Apr 11, 10:05am

Sun Apr 11, 9:04am

Sun Apr 11, 8:04am

Sun Apr 11, 7:04am

Sun Apr 11, 6:04am

Sun Apr 11, 5:04am

Sun Apr 11, 4:04am

Sun Apr 11, 3:04am

Sun Apr 11, 2:04am

Sun Apr 11, 1:05am

Sun Apr 11, 12:04am

Sat Apr 10, 11:05pm

Sat Apr 10, 9:04pm

Sat Apr 10, 8:04pm

Sat Apr 10, 7:05pm

Sat Apr 10, 6:04pm

Sat Apr 10, 5:04pm

Sat Apr 10, 4:04pm

Sat Apr 10, 3:04pm

Sat Apr 10, 2:05pm

Sat Apr 10, 1:04pm

Sat Apr 10, 12:04pm

Sat Apr 10, 11:04am

Sat Apr 10, 10:04am

Sat Apr 10, 9:04am

Sat Apr 10, 8:04am

Sat Apr 10, 7:04am

Sat Apr 10, 6:04am

Sat Apr 10, 5:04am

Sat Apr 10, 4:04am

Sat Apr 10, 3:04am

Sat Apr 10, 2:04am

Sat Apr 10, 1:05am

Sat Apr 10, 12:04am

Fri Apr 9, 11:04pm

Fri Apr 9, 10:05pm

Fri Apr 9, 9:04pm

Fri Apr 9, 8:05pm

Fri Apr 9, 7:05pm

Fri Apr 9, 6:04pm

Fri Apr 9, 5:04pm

Fri Apr 9, 4:05pm

Fri Apr 9, 3:05pm

Fri Apr 9, 2:04pm

Fri Apr 9, 1:04pm

Fri Apr 9, 12:04pm

Fri Apr 9, 11:05am

Meta data:

ID: 70205a28-76ab-4bf2-a35e-fe273249c6b5
Link: https://api.weather.gov/products/70205a28-76ab-4bf2-a35e-fe273249c6b5